Location: Unspecified
(0.0000°N, 0.0000°E)
Time: 23:23:14
(UTC+00:00)

Envisat - Pass Details

Date: 23 February 2020
Orbit: 764 x 766 km, 98.1° (Epoch: 25 February)

Event Time Altitude Azimuth Distance (km) Brightness Sun altitude
Rises 05:08:43 0° 47° (NE) 3,216 6.8 -15.9°
Reaches altitude 10° 05:12:08 10° 71° (ENE) 2,295 6.4 -15.1°
Maximum altitude 05:14:43 14° 103° (ESE) 2,022 6.5 -14.5°
Drops below altitude 10° 05:17:19 10° 134° (SE) 2,300 6.4 -13.8°
Sets 05:20:43 0° 158° (SSE) 3,229 6.7 -13.0°
